カタログに戻る

KUIPER-00124

運用中通信LEO
NORAD 65953·PAYLOAD·🇺🇸 United States

打ち上げ Oct 14, 2025 から Cape Canaveral Space Force Station

Loading…

次のパス (今後24時間)

TLE

最新Source: CelesTrak SupGP

元期: Sep 14, 2026, 19:51 UTC

1 65953C 25228G   26257.82721065  .00002797  00000+0  36611-3 0  2571
2 65953  51.8973 239.1850 0000820  47.1077 181.8691 14.79924143    16

AllMySatでKUIPER-00124をリアルタイム追跡

Download on the App Store